contact: severine.martini@mio.osupytheas.fr, dominique.lefevre@mio.osupytheas.fr
Project:EMSO Ligure-ouest http://www.emso-fr.org/EMSO-France
Sensor Aquadopp, Serial 05974 
DOI : "https://doi.org/10.17882/97948" 
Title:EMSO Western Ligurian : Data Bathybot Aquadopp sensor - deploiement 2023-04-28
Datetime,Profondeur,Latitude,Longitude,X_East,Y_North,Z_up,Amplitude_X,Amplitude_Y,Amplitude_Z,Batterie,Sound_Speed,Heading,Pitch,Roll,Pressure,Temperature,Fluorescence,Speed,Direction
time,m,degree_north,degree_east,m.s-1,m.s-1,m.s-1,1,1,1,Volt,m.s-1,degree,degree,degree,dbar,degree_C,arbitrary units (a.u.),m.s-1,degree
2023-12-18T00:03:13,2420,42.8014,5.9826,1.17,0.047,3.165,155.0,151.0,152.0,11.8,1504.7,271.4,-0.8,0.9,2485.593,13.28,761.0,1.171,87.7
2023-12-18T00:06:13,2420,42.8014,5.9826,0.888,0.018,3.454,155.0,152.0,152.0,11.8,1504.7,271.3,-0.8,0.9,2485.484,13.28,783.0,0.888,88.8
2023-12-18T00:09:14,2420,42.8014,5.9826,0.937,0.027,3.397,155.0,152.0,152.0,11.8,1504.7,271.4,-0.8,0.9,2485.295,13.28,778.0,0.937,88.4
2023-12-18T00:12:14,2420,42.8014,5.9826,1.057,0.027,3.314,154.0,151.0,152.0,11.8,1504.7,271.4,-0.8,0.8,2485.396,13.28,761.0,1.057,88.5
2023-12-18T00:15:14,2420,42.8014,5.9826,0.98,0.033,3.363,155.0,151.0,152.0,11.8,1504.7,271.4,-0.8,0.9,2485.446,13.28,775.0,0.981,88.1
2023-12-18T00:18:14,2420,42.8014,5.9826,0.992,0.252,2.892,155.0,152.0,152.0,11.8,1504.7,271.3,-0.9,0.9,2485.378,13.28,782.0,1.023,75.8
2023-12-18T00:21:14,2420,42.8014,5.9826,0.84,0.006,2.658,155.0,152.0,152.0,11.8,1504.7,271.4,-0.8,0.9,2485.665,13.28,764.0,0.84,89.6
2023-12-18T00:24:13,2420,42.8014,5.9826,1.038,0.266,2.918,155.0,151.0,152.0,11.8,1504.7,271.4,-0.8,0.9,2485.476,13.28,782.0,1.071,75.6
2023-12-18T00:27:13,2420,42.8014,5.9826,0.974,0.274,2.937,155.0,151.0,152.0,11.8,1504.7,271.4,-0.8,0.9,2485.384,13.28,789.0,1.012,74.3
2023-12-18T00:30:13,2420,42.8014,5.9826,0.867,0.271,3.069,155.0,152.0,152.0,11.8,1504.7,271.3,-0.8,0.9,2485.655,13.28,844.0,0.908,72.6
2023-12-18T00:33:13,2420,42.8014,5.9826,1.125,0.028,3.28,155.0,152.0,152.0,11.8,1504.7,271.4,-0.8,0.9,2485.5,13.28,775.0,1.125,88.6
2023-12-18T00:36:13,2420,42.8014,5.9826,0.994,0.023,3.412,155.0,151.0,152.0,11.8,1504.7,271.3,-0.9,0.9,2485.564,13.28,785.0,0.994,88.7
2023-12-18T00:39:14,2420,42.8014,5.9826,0.79,0.03,2.714,155.0,151.0,152.0,11.8,1504.7,271.3,-0.8,0.9,2485.564,13.28,780.0,0.791,87.8
2023-12-18T00:42:14,2420,42.8014,5.9826,0.769,0.52,2.684,155.0,151.0,152.0,11.8,1504.7,271.4,-0.8,0.9,2485.426,13.28,767.0,0.928,55.9
2023-12-18T00:45:14,2420,42.8014,5.9826,0.569,0.507,2.883,155.0,151.0,152.0,11.8,1504.7,271.4,-0.8,0.9,2485.283,13.28,786.0,0.762,48.3
2023-12-18T00:48:14,2420,42.8014,5.9826,1.138,0.261,2.779,155.0,151.0,152.0,11.8,1504.7,271.7,-0.8,0.9,2485.558,13.28,781.0,1.167,77.1
2023-12-18T00:51:14,2420,42.8014,5.9826,1.133,0.01,3.218,155.0,151.0,152.0,11.8,1504.7,271.4,-0.9,0.9,2485.37,13.28,781.0,1.133,89.5
2023-12-18T00:54:13,2420,42.8014,5.9826,1.06,0.028,3.286,155.0,151.0,152.0,11.8,1504.7,271.4,-0.9,0.9,2485.406,13.28,779.0,1.06,88.5
2023-12-18T00:57:13,2420,42.8014,5.9826,0.982,0.281,2.982,155.0,152.0,152.0,11.7,1504.7,271.3,-0.8,0.9,2485.263,13.28,783.0,1.021,74.0
2023-12-18T01:03:13,2420,42.8014,5.9826,1.034,-0.074,3.131,155.0,151.0,152.0,11.7,1504.7,271.5,-0.8,0.8,2485.617,13.28,773.0,1.037,94.1
2023-12-18T01:06:13,2420,42.8014,5.9826,1.033,-0.236,2.843,155.0,151.0,152.0,11.8,1504.7,271.3,-0.9,0.9,2485.663,13.28,777.0,1.059,102.9
2023-12-18T01:09:14,2420,42.8014,5.9826,0.812,-0.201,3.098,155.0,151.0,152.0,11.8,1504.7,271.3,-0.8,0.9,2485.414,13.28,777.0,0.837,103.9
2023-12-18T01:12:14,2420,42.8014,5.9826,0.802,0.27,3.096,155.0,152.0,152.0,11.8,1504.7,271.4,-0.8,0.9,2485.069,13.28,773.0,0.846,71.4
2023-12-18T01:15:14,2420,42.8014,5.9826,1.047,0.035,3.292,155.0,152.0,152.0,11.8,1504.7,271.4,-0.8,0.9,2485.558,13.28,771.0,1.047,88.1
2023-12-18T01:18:14,2420,42.8014,5.9826,1.22,0.032,3.138,155.0,152.0,152.0,11.7,1504.7,271.4,-0.8,0.9,2485.609,13.28,762.0,1.22,88.5
2023-12-18T01:21:14,2420,42.8014,5.9826,0.91,0.021,3.414,155.0,152.0,152.0,11.8,1504.7,271.3,-0.8,0.9,2485.566,13.28,772.0,0.91,88.7
2023-12-18T01:24:14,2420,42.8014,5.9826,0.993,-0.24,2.919,155.0,151.0,152.0,11.8,1504.7,271.3,-0.9,0.9,2485.175,13.28,774.0,1.022,103.6
2023-12-18T01:27:13,2420,42.8014,5.9826,0.722,-0.444,2.732,155.0,152.0,152.0,11.8,1504.7,271.3,-0.8,0.9,2485.593,13.28,765.0,0.848,121.6
2023-12-18T01:30:13,2420,42.8014,5.9826,1.066,0.017,3.253,155.0,151.0,152.0,11.8,1504.7,271.3,-0.8,0.9,2485.43,13.28,788.0,1.066,89.1
2023-12-18T01:33:13,2420,42.8014,5.9826,1.16,0.035,3.156,155.0,152.0,152.0,11.8,1504.7,271.4,-0.8,0.9,2485.428,13.28,773.0,1.16,88.3
2023-12-18T01:36:13,2420,42.8014,5.9826,1.035,0.034,3.311,155.0,152.0,152.0,11.8,1504.7,271.3,-0.8,0.9,2485.416,13.28,2837.0,1.035,88.1
2023-12-18T01:39:14,2420,42.8014,5.9826,0.973,0.268,2.924,155.0,151.0,152.0,11.8,1504.7,271.3,-0.8,0.9,2485.442,13.28,781.0,1.009,74.6
2023-12-18T01:42:14,2420,42.8014,5.9826,1.066,0.039,3.275,155.0,151.0,152.0,11.8,1504.7,271.4,-0.8,0.9,2485.448,13.28,781.0,1.067,87.9
2023-12-18T01:45:14,2420,42.8014,5.9826,1.107,0.033,3.165,155.0,151.0,152.0,11.8,1504.7,271.3,-0.8,0.9,2485.486,13.28,802.0,1.107,88.3
2023-12-18T01:48:14,2420,42.8014,5.9826,1.169,0.014,3.134,155.0,151.0,152.0,11.8,1504.7,271.5,-0.8,0.9,2485.727,13.28,766.0,1.169,89.3
2023-12-18T01:51:14,2420,42.8014,5.9826,1.001,0.033,3.323,155.0,152.0,152.0,11.7,1504.7,271.4,-0.8,0.9,2485.956,13.28,772.0,1.002,88.1
2023-12-18T01:54:13,2420,42.8014,5.9826,0.911,0.038,3.417,155.0,151.0,152.0,11.8,1504.7,271.4,-0.8,0.8,2485.237,13.28,765.0,0.912,87.6
2023-12-18T01:57:14,2420,42.8014,5.9826,1.157,0.273,2.797,155.0,151.0,152.0,11.7,1504.7,271.4,-0.8,0.9,2485.958,13.28,766.0,1.189,76.7
2023-12-18T02:03:13,2420,42.8014,5.9826,1.124,0.251,2.764,155.0,151.0,152.0,11.8,1504.7,271.3,-0.9,0.9,2485.86,13.28,774.0,1.151,77.4
2023-12-18T02:06:13,2420,42.8014,5.9826,1.063,0.022,3.246,155.0,151.0,152.0,11.8,1504.7,271.4,-0.8,0.9,2485.564,13.28,768.0,1.063,88.8
2023-12-18T02:09:13,2420,42.8014,5.9826,1.052,0.017,3.268,155.0,151.0,152.0,11.8,1504.7,271.4,-0.9,0.9,2485.53,13.28,781.0,1.052,89.1
2023-12-18T02:12:13,2420,42.8014,5.9826,0.885,0.034,3.454,155.0,152.0,152.0,11.7,1504.7,271.5,-0.8,0.9,2485.512,13.28,783.0,0.886,87.8
2023-12-18T02:15:13,2420,42.8014,5.9826,0.827,0.283,3.048,155.0,152.0,152.0,11.7,1504.7,271.3,-0.8,0.9,2485.334,13.28,776.0,0.874,71.1
2023-12-18T02:18:14,2420,42.8014,5.9826,1.008,0.019,3.336,155.0,151.0,152.0,11.8,1504.7,271.4,-0.8,0.9,2485.719,13.28,771.0,1.008,88.9
2023-12-18T02:21:14,2420,42.8014,5.9826,1.228,0.018,3.08,155.0,151.0,152.0,11.8,1504.7,271.4,-0.8,0.9,2485.462,13.28,777.0,1.228,89.2
2023-12-18T02:24:14,2420,42.8014,5.9826,0.969,0.041,3.396,155.0,151.0,152.0,11.8,1504.7,271.4,-0.8,0.9,2485.474,13.28,781.0,0.97,87.6
2023-12-18T02:27:14,2420,42.8014,5.9826,1.122,0.017,3.162,155.0,151.0,152.0,11.8,1504.7,271.4,-0.9,0.9,2485.474,13.28,776.0,1.122,89.1
2023-12-18T02:30:13,2420,42.8014,5.9826,1.152,0.043,3.158,155.0,151.0,152.0,11.8,1504.7,271.4,-0.9,0.9,2485.103,13.28,777.0,1.153,87.9
2023-12-18T02:33:13,2420,42.8014,5.9826,1.164,0.043,3.208,155.0,151.0,152.0,11.8,1504.7,271.4,-0.8,0.9,2485.336,13.28,762.0,1.165,87.9
2023-12-18T02:36:13,2420,42.8014,5.9826,0.969,0.024,3.368,155.0,151.0,152.0,11.8,1504.7,271.4,-0.8,0.9,2485.595,13.28,752.0,0.969,88.6
2023-12-18T02:39:14,2420,42.8014,5.9826,0.9,0.055,3.43,155.0,151.0,152.0,11.8,1504.7,271.5,-0.8,0.9,2485.51,13.28,768.0,0.902,86.5
2023-12-18T02:42:14,2420,42.8014,5.9826,1.156,0.012,3.127,155.0,151.0,152.0,11.8,1504.7,271.4,-0.8,0.9,2485.053,13.28,786.0,1.156,89.4
2023-12-18T02:45:14,2420,42.8014,5.9826,1.048,0.026,3.319,155.0,151.0,152.0,11.8,1504.7,271.4,-0.8,0.9,2485.506,13.28,774.0,1.048,88.6
2023-12-18T02:48:14,2420,42.8014,5.9826,1.123,0.014,3.236,155.0,151.0,152.0,11.8,1504.7,271.4,-0.8,0.9,2485.207,13.28,776.0,1.123,89.3
2023-12-18T02:51:14,2420,42.8014,5.9826,0.889,0.259,3.0,155.0,151.0,152.0,11.8,1504.7,271.6,-0.8,0.9,2485.723,13.28,767.0,0.926,73.8
2023-12-18T02:54:13,2420,42.8014,5.9826,1.227,0.022,3.05,155.0,151.0,152.0,11.8,1504.7,271.5,-0.8,0.8,2485.496,13.28,778.0,1.227,89.0
2023-12-18T02:57:13,2420,42.8014,5.9826,1.022,0.28,2.885,155.0,151.0,152.0,11.8,1504.7,271.5,-0.8,0.9,2485.518,13.28,782.0,1.06,74.7
2023-12-18T03:03:13,2420,42.8014,5.9826,0.863,0.042,3.439,155.0,151.0,152.0,11.8,1504.7,271.2,-0.8,0.9,2485.036,13.28,774.0,0.864,87.2
2023-12-18T03:06:13,2420,42.8014,5.9826,0.509,0.06,3.815,155.0,151.0,152.0,11.8,1504.7,271.0,-0.8,0.9,2485.299,13.28,776.0,0.512,83.3
2023-12-18T03:09:13,2420,42.8014,5.9826,0.425,0.054,3.852,156.0,152.0,152.0,11.7,1504.7,271.5,-0.8,0.9,2484.683,13.28,766.0,0.428,82.8
2023-12-18T03:12:13,2420,42.8014,5.9826,0.011,0.069,4.219,155.0,152.0,153.0,11.7,1504.7,271.2,-0.8,0.9,2485.601,13.28,778.0,0.069,9.1
2023-12-18T03:15:14,2420,42.8014,5.9826,0.027,0.068,4.27,155.0,152.0,153.0,11.7,1504.7,271.8,-0.9,0.9,2484.775,13.28,773.0,0.073,21.7
2023-12-18T03:18:13,2420,42.8014,5.9826,0.44,0.075,3.948,155.0,152.0,152.0,11.8,1504.7,271.5,-0.8,0.9,2485.366,13.28,777.0,0.446,80.3
2023-12-18T03:21:13,2420,42.8014,5.9826,0.331,0.041,3.152,155.0,151.0,152.0,11.8,1504.7,271.3,-0.8,0.9,2485.408,13.28,767.0,0.333,82.9
2023-12-18T03:24:13,2420,42.8014,5.9826,0.47,0.298,3.451,155.0,152.0,152.0,11.8,1504.7,271.4,-0.8,0.9,2485.328,13.28,776.0,0.556,57.6
2023-12-18T03:27:14,2420,42.8014,5.9826,0.363,0.302,3.576,155.0,152.0,152.0,11.8,1504.7,271.3,-0.9,0.9,2485.223,13.28,781.0,0.472,50.2
2023-12-18T03:30:14,2420,42.8014,5.9826,0.26,0.282,3.634,155.0,151.0,152.0,11.8,1504.7,271.3,-0.9,0.9,2485.498,13.28,783.0,0.384,42.7
2023-12-18T03:33:13,2420,42.8014,5.9826,0.245,0.073,4.118,154.0,151.0,152.0,11.8,1504.7,271.4,-0.9,0.9,2485.364,13.28,775.0,0.255,73.4
2023-12-18T03:36:13,2420,42.8014,5.9826,-0.16,0.288,2.308,155.0,151.0,152.0,11.8,1504.7,271.3,-0.8,0.9,2485.231,13.28,793.0,0.329,330.9
2023-12-18T03:39:13,2420,42.8014,5.9826,0.272,0.307,3.646,155.0,151.0,152.0,11.8,1504.7,271.5,-0.9,0.9,2485.354,13.28,772.0,0.41,41.5
2023-12-18T03:42:13,2420,42.8014,5.9826,0.392,0.067,3.972,155.0,152.0,152.0,11.7,1504.7,271.4,-0.9,0.9,2485.601,13.28,786.0,0.398,80.3
2023-12-18T03:45:13,2420,42.8014,5.9826,0.67,0.043,3.668,155.0,151.0,152.0,11.8,1504.7,271.3,-0.8,0.9,2485.661,13.28,788.0,0.671,86.3
2023-12-18T03:48:14,2420,42.8014,5.9826,0.413,0.064,3.928,155.0,151.0,152.0,11.8,1504.7,271.4,-0.8,0.9,2485.233,13.28,769.0,0.418,81.2
2023-12-18T03:51:14,2420,42.8014,5.9826,0.202,0.294,3.749,155.0,151.0,152.0,11.8,1504.7,271.3,-0.8,0.9,2485.538,13.28,783.0,0.357,34.5
2023-12-18T03:54:14,2420,42.8014,5.9826,0.598,-0.175,3.303,155.0,151.0,152.0,11.8,1504.7,271.4,-0.8,0.9,2485.336,13.28,787.0,0.623,106.3
2023-12-18T03:57:14,2420,42.8014,5.9826,0.533,0.527,2.994,155.0,151.0,152.0,11.8,1504.7,271.4,-0.8,0.9,2485.267,13.28,777.0,0.75,45.3
2023-12-18T04:03:13,2420,42.8014,5.9826,0.301,0.079,4.083,155.0,151.0,152.0,11.8,1504.7,271.5,-0.8,0.9,2485.149,13.28,785.0,0.311,75.3
2023-12-18T04:06:13,2420,42.8014,5.9826,0.488,0.036,3.833,155.0,151.0,152.0,11.8,1504.7,271.3,-0.9,0.9,2485.199,13.28,778.0,0.489,85.8
2023-12-18T04:09:13,2420,42.8014,5.9826,0.406,0.044,3.954,155.0,152.0,152.0,11.8,1504.7,271.5,-0.8,0.9,2485.633,13.28,783.0,0.408,83.8
2023-12-18T04:12:13,2420,42.8014,5.9826,0.582,0.051,3.8,155.0,152.0,152.0,11.8,1504.7,271.5,-0.8,0.9,2484.894,13.28,771.0,0.584,85.0
2023-12-18T04:15:13,2420,42.8014,5.9826,0.331,0.067,3.982,155.0,151.0,152.0,11.8,1504.7,271.5,-0.8,0.8,2485.247,13.28,779.0,0.338,78.6
2023-12-18T04:18:14,2420,42.8014,5.9826,0.533,0.062,3.753,155.0,151.0,152.0,11.8,1504.7,271.3,-0.9,0.9,2484.984,13.28,773.0,0.537,83.4
2023-12-18T04:21:14,2420,42.8014,5.9826,0.555,0.046,3.782,155.0,151.0,152.0,11.8,1504.7,271.3,-0.9,0.9,2485.56,13.28,785.0,0.557,85.3
2023-12-18T04:24:14,2420,42.8014,5.9826,0.376,0.051,3.933,155.0,151.0,152.0,11.8,1504.7,271.4,-0.8,0.9,2485.191,13.28,774.0,0.379,82.3
2023-12-18T04:27:14,2420,42.8014,5.9826,0.156,-0.163,3.787,155.0,151.0,152.0,11.7,1504.7,271.4,-0.8,0.9,2485.342,13.28,776.0,0.225,136.3
2023-12-18T04:30:14,2420,42.8014,5.9826,0.423,0.082,3.861,155.0,152.0,152.0,11.8,1504.7,271.4,-0.8,0.9,2485.299,13.28,766.0,0.431,79.0
2023-12-18T04:33:13,2420,42.8014,5.9826,0.383,0.07,3.931,155.0,151.0,152.0,11.8,1504.7,271.4,-0.8,0.9,2485.235,13.28,783.0,0.389,79.6
2023-12-18T04:36:13,2420,42.8014,5.9826,0.301,0.295,3.626,155.0,151.0,152.0,11.8,1504.7,271.5,-0.8,0.9,2485.089,13.28,772.0,0.421,45.6
2023-12-18T04:39:13,2420,42.8014,5.9826,0.382,0.039,3.97,155.0,151.0,152.0,11.8,1504.7,271.5,-0.8,0.9,2485.243,13.28,769.0,0.384,84.2
2023-12-18T04:42:14,2420,42.8014,5.9826,0.341,0.068,4.034,155.0,151.0,152.0,11.8,1504.7,271.4,-0.8,0.8,2485.45,13.28,2025.0,0.348,78.7
2023-12-18T04:45:14,2420,42.8014,5.9826,0.481,0.076,3.871,155.0,152.0,152.0,11.8,1504.7,271.3,-0.8,0.9,2485.456,13.28,1841.0,0.487,81.0
2023-12-18T04:48:14,2420,42.8014,5.9826,0.462,0.035,3.901,155.0,151.0,152.0,11.8,1504.7,271.2,-0.8,0.9,2485.587,13.28,779.0,0.463,85.7
2023-12-18T04:51:14,2420,42.8014,5.9826,0.413,0.056,3.86,155.0,151.0,152.0,11.8,1504.7,271.3,-0.8,0.9,2485.265,13.28,783.0,0.417,82.3
2023-12-18T04:54:14,2420,42.8014,5.9826,0.262,0.086,4.061,155.0,151.0,152.0,11.8,1504.7,271.4,-0.8,0.9,2485.448,13.28,771.0,0.276,71.8
2023-12-18T04:57:13,2420,42.8014,5.9826,0.494,0.072,3.846,155.0,151.0,152.0,11.8,1504.7,271.4,-0.8,0.9,2485.4,13.28,760.0,0.499,81.7
2023-12-18T05:03:13,2420,42.8014,5.9826,0.356,0.268,3.521,155.0,152.0,152.0,11.8,1504.7,271.3,-0.8,0.9,2485.281,13.28,788.0,0.446,53.0
2023-12-18T05:06:13,2420,42.8014,5.9826,0.321,0.066,4.04,155.0,152.0,152.0,11.8,1504.7,271.3,-0.8,0.9,2485.071,13.28,775.0,0.328,78.4
2023-12-18T05:09:13,2420,42.8014,5.9826,0.306,0.054,4.031,155.0,152.0,152.0,11.8,1504.7,271.3,-0.8,0.9,2485.251,13.28,803.0,0.311,80.0
2023-12-18T05:12:13,2420,42.8014,5.9826,0.057,0.036,3.447,155.0,151.0,152.0,11.8,1504.7,271.3,-0.8,0.9,2485.334,13.28,771.0,0.067,57.7
2023-12-18T05:15:14,2420,42.8014,5.9826,0.247,0.073,4.145,155.0,151.0,152.0,11.8,1504.7,271.3,-0.9,0.9,2485.671,13.28,781.0,0.258,73.5
2023-12-18T05:18:13,2420,42.8014,5.9826,0.47,0.036,3.859,155.0,152.0,152.0,11.8,1504.7,271.4,-0.9,0.9,2484.924,13.28,771.0,0.471,85.6
2023-12-18T05:21:13,2420,42.8014,5.9826,0.21,-0.176,3.715,155.0,151.0,152.0,11.8,1504.7,271.3,-0.9,0.9,2485.322,13.28,759.0,0.274,130.0
2023-12-18T05:24:13,2420,42.8014,5.9826,0.364,0.04,3.993,155.0,151.0,152.0,11.8,1504.7,271.4,-0.8,0.9,2485.273,13.28,775.0,0.366,83.7
2023-12-18T05:27:13,2420,42.8014,5.9826,0.426,0.041,3.942,155.0,151.0,152.0,11.7,1504.7,271.4,-0.8,0.9,2485.093,13.28,773.0,0.428,84.5
2023-12-18T05:30:14,2420,42.8014,5.9826,0.113,-0.167,3.833,155.0,151.0,152.0,11.8,1504.7,271.3,-0.8,0.9,2485.456,13.28,777.0,0.201,145.9
2023-12-18T05:33:13,2420,42.8014,5.9826,0.539,0.048,3.856,155.0,151.0,152.0,11.8,1504.7,271.4,-0.8,0.9,2485.229,13.28,764.0,0.541,84.9
2023-12-18T05:36:14,2420,42.8014,5.9826,0.063,0.051,3.442,155.0,151.0,152.0,11.7,1504.7,271.4,-0.8,0.9,2485.46,13.28,768.0,0.081,51.0
2023-12-18T05:39:14,2420,42.8014,5.9826,0.306,0.041,4.015,155.0,152.0,152.0,11.8,1504.7,271.4,-0.8,0.9,2485.368,13.28,789.0,0.309,82.4
2023-12-18T05:42:14,2420,42.8014,5.9826,0.312,0.059,3.971,155.0,151.0,152.0,11.8,1504.7,271.5,-0.8,0.8,2485.338,13.28,1103.0,0.317,79.3
2023-12-18T05:45:14,2420,42.8014,5.9826,0.144,-0.198,3.748,155.0,151.0,152.0,11.8,1504.7,271.3,-0.8,0.9,2485.175,13.28,768.0,0.244,144.0
2023-12-18T05:48:14,2420,42.8014,5.9826,0.252,0.558,3.224,155.0,151.0,152.0,11.8,1504.7,271.4,-0.8,0.9,2485.629,13.28,767.0,0.612,24.3
2023-12-18T05:51:14,2420,42.8014,5.9826,0.586,0.043,3.726,155.0,151.0,152.0,11.8,1504.7,271.3,-0.8,0.9,2485.33,13.28,765.0,0.587,85.8
2023-12-18T05:54:13,2420,42.8014,5.9826,0.33,0.072,4.063,155.0,152.0,152.0,11.8,1504.7,271.4,-0.8,0.9,2485.472,13.28,778.0,0.338,77.7
2023-12-18T05:57:13,2420,42.8014,5.9826,0.494,0.056,3.84,155.0,152.0,152.0,11.8,1504.7,271.3,-0.8,0.9,2485.167,13.28,773.0,0.497,83.5
2023-12-18T06:03:13,2420,42.8014,5.9826,0.516,0.05,3.78,155.0,151.0,152.0,11.8,1504.7,271.4,-0.8,0.9,2485.552,13.28,1630.0,0.518,84.5
2023-12-18T06:06:14,2420,42.8014,5.9826,0.269,0.299,3.642,155.0,151.0,152.0,11.8,1504.7,271.3,-0.9,0.9,2485.358,13.28,765.0,0.402,42.0
2023-12-18T06:09:14,2420,42.8014,5.9826,1.311,0.025,3.047,155.0,151.0,152.0,11.7,1504.7,271.3,-0.8,0.9,2485.534,13.28,773.0,1.311,88.9
2023-12-18T06:12:14,2420,42.8014,5.9826,0.298,0.056,4.13,155.0,152.0,152.0,11.8,1504.7,271.4,-0.8,0.9,2485.478,13.28,777.0,0.303,79.4
2023-12-18T06:15:14,2420,42.8014,5.9826,0.221,-0.202,3.684,155.0,151.0,152.0,11.7,1504.7,271.4,-0.8,0.9,2485.249,13.28,762.0,0.299,132.4
2023-12-18T06:18:14,2420,42.8014,5.9826,0.176,0.302,3.788,155.0,151.0,152.0,11.7,1504.7,271.5,-0.8,0.9,2485.189,13.28,774.0,0.349,30.2
2023-12-18T06:21:14,2420,42.8014,5.9826,0.177,0.077,4.176,155.0,151.0,152.0,11.8,1504.7,271.5,-0.8,0.9,2485.538,13.28,932.0,0.193,66.5
2023-12-18T06:24:13,2420,42.8014,5.9826,0.775,0.041,3.522,155.0,151.0,152.0,11.8,1504.7,271.4,-0.8,0.9,2485.38,13.28,778.0,0.776,87.0
2023-12-18T06:27:13,2420,42.8014,5.9826,0.208,0.326,3.705,155.0,151.0,152.0,11.8,1504.7,271.4,-0.8,0.9,2485.709,13.28,778.0,0.387,32.5
2023-12-18T06:30:14,2420,42.8014,5.9826,0.036,-0.197,3.877,155.0,152.0,152.0,11.8,1504.7,271.3,-0.8,0.9,2485.45,13.28,760.0,0.2,169.6
2023-12-18T06:33:13,2420,42.8014,5.9826,0.314,0.055,4.037,155.0,151.0,152.0,11.8,1504.7,271.4,-0.8,0.9,2485.583,13.28,766.0,0.319,80.1
2023-12-18T06:36:13,2420,42.8014,5.9826,0.5,0.049,3.831,155.0,151.0,152.0,11.8,1504.7,271.6,-0.8,0.9,2485.514,13.28,776.0,0.502,84.4
2023-12-18T06:39:13,2420,42.8014,5.9826,0.503,0.04,3.787,155.0,151.0,152.0,11.8,1504.7,271.4,-0.8,0.9,2485.406,13.28,785.0,0.505,85.5
2023-12-18T06:42:13,2420,42.8014,5.9826,0.299,0.062,4.016,155.0,152.0,152.0,11.8,1504.7,271.5,-0.8,0.8,2485.827,13.28,778.0,0.305,78.3
2023-12-18T06:45:13,2420,42.8014,5.9826,0.189,0.044,4.135,155.0,151.0,152.0,11.8,1504.7,271.4,-0.8,0.9,2485.183,13.28,777.0,0.194,76.9
2023-12-18T06:48:14,2420,42.8014,5.9826,0.539,0.043,3.802,154.0,151.0,152.0,11.8,1504.7,271.5,-0.8,0.9,2485.609,13.28,786.0,0.541,85.4
2023-12-18T06:51:14,2420,42.8014,5.9826,0.314,0.06,3.985,155.0,151.0,152.0,11.8,1504.7,271.4,-0.8,0.9,2485.285,13.28,779.0,0.32,79.2
2023-12-18T06:54:14,2420,42.8014,5.9826,0.356,0.055,3.944,155.0,151.0,152.0,11.8,1504.7,271.3,-0.9,0.9,2485.653,13.28,775.0,0.36,81.2
2023-12-18T06:57:14,2420,42.8014,5.9826,0.251,0.039,4.04,155.0,152.0,152.0,11.8,1504.7,271.5,-0.8,0.9,2485.769,13.28,775.0,0.254,81.2
2023-12-18T07:03:13,2420,42.8014,5.9826,-0.033,0.324,3.951,155.0,151.0,152.0,11.7,1504.7,271.4,-0.8,0.9,2485.141,13.28,774.0,0.326,354.2
2023-12-18T07:06:13,2420,42.8014,5.9826,-0.011,-0.168,3.897,155.0,152.0,152.0,11.8,1504.7,271.5,-0.8,0.9,2485.47,13.28,780.0,0.168,183.7
2023-12-18T07:09:14,2420,42.8014,5.9826,0.652,0.03,3.69,155.0,152.0,152.0,11.8,1504.7,271.3,-0.8,0.9,2485.653,13.28,767.0,0.653,87.4
2023-12-18T07:12:14,2420,42.8014,5.9826,0.371,-0.191,3.519,155.0,152.0,152.0,11.7,1504.7,271.4,-0.9,0.9,2485.303,13.28,776.0,0.417,117.2
2023-12-18T07:15:14,2420,42.8014,5.9826,0.181,0.299,3.729,155.0,151.0,152.0,11.8,1504.7,271.3,-0.8,0.9,2485.605,13.28,785.0,0.349,31.2
2023-12-18T07:18:14,2420,42.8014,5.9826,0.454,-0.183,3.438,155.0,151.0,152.0,11.8,1504.7,271.4,-0.8,0.9,2485.123,13.28,885.0,0.489,112.0
2023-12-18T07:21:14,2420,42.8014,5.9826,0.285,0.057,4.063,155.0,151.0,152.0,11.8,1504.7,271.4,-0.8,0.8,2485.627,13.28,786.0,0.291,78.7
2023-12-18T07:24:14,2420,42.8014,5.9826,0.249,0.037,4.112,155.0,152.0,152.0,11.8,1504.7,271.7,-0.8,0.9,2485.318,13.28,764.0,0.251,81.5
2023-12-18T07:27:13,2420,42.8014,5.9826,0.091,0.306,3.772,155.0,151.0,152.0,11.8,1504.7,271.4,-0.8,0.9,2485.024,13.28,775.0,0.319,16.6
2023-12-18T07:30:13,2420,42.8014,5.9826,0.512,0.075,3.828,155.0,151.0,152.0,11.8,1504.7,271.4,-0.8,0.9,2485.285,13.28,769.0,0.517,81.7
2023-12-18T07:33:14,2420,42.8014,5.9826,0.324,0.056,3.958,155.0,151.0,152.0,11.8,1504.7,271.3,-0.8,0.9,2485.227,13.28,786.0,0.329,80.2
2023-12-18T07:36:13,2420,42.8014,5.9826,0.352,0.045,4.016,155.0,151.0,152.0,11.8,1504.7,271.3,-0.8,0.9,2485.382,13.28,779.0,0.355,82.7
2023-12-18T07:39:13,2420,42.8014,5.9826,0.255,0.031,4.096,155.0,151.0,152.0,11.7,1504.7,271.4,-0.9,0.9,2485.376,13.28,787.0,0.257,83.1
2023-12-18T07:42:13,2420,42.8014,5.9826,0.049,0.31,3.824,155.0,151.0,152.0,11.8,1504.7,271.3,-0.9,0.9,2485.468,13.28,781.0,0.314,9.0
2023-12-18T07:45:14,2420,42.8014,5.9826,0.239,0.061,4.127,155.0,151.0,152.0,11.8,1504.7,271.3,-0.9,0.9,2485.34,13.28,774.0,0.246,75.7
2023-12-18T07:48:14,2420,42.8014,5.9826,0.05,0.544,3.442,155.0,152.0,152.0,11.8,1504.7,271.4,-0.9,0.9,2485.328,13.28,776.0,0.546,5.3
2023-12-18T07:51:14,2420,42.8014,5.9826,0.233,0.069,4.155,155.0,151.0,152.0,11.8,1504.7,271.3,-0.8,0.9,2485.416,13.28,777.0,0.242,73.5
2023-12-18T07:54:14,2420,42.8014,5.9826,0.91,0.014,3.458,155.0,151.0,152.0,11.7,1504.7,271.3,-0.9,0.9,2485.466,13.28,776.0,0.91,89.1
2023-12-18T07:57:14,2420,42.8014,5.9826,0.293,0.053,4.029,155.0,151.0,152.0,11.7,1504.7,271.3,-0.9,0.9,2485.609,13.28,771.0,0.298,79.7
2023-12-18T08:03:13,2420,42.8014,5.9826,0.103,0.068,4.271,155.0,151.0,152.0,11.8,1504.7,271.4,-0.8,0.9,2485.462,13.28,772.0,0.123,56.6
2023-12-18T08:06:14,2420,42.8014,5.9826,0.402,0.072,3.948,155.0,151.0,152.0,11.8,1504.7,271.6,-0.8,0.9,2485.474,13.28,779.0,0.408,79.8
2023-12-18T08:09:14,2420,42.8014,5.9826,0.293,0.051,4.081,155.0,151.0,152.0,11.8,1504.7,271.3,-0.8,0.8,2485.55,13.28,782.0,0.297,80.1
2023-12-18T08:12:14,2420,42.8014,5.9826,0.398,0.055,3.933,155.0,151.0,152.0,11.8,1504.7,271.5,-0.8,0.9,2485.059,13.28,766.0,0.402,82.1
2023-12-18T08:15:14,2420,42.8014,5.9826,0.317,0.051,4.022,155.0,152.0,152.0,11.8,1504.7,271.3,-0.9,0.9,2485.613,13.28,772.0,0.321,80.9
2023-12-18T08:18:14,2420,42.8014,5.9826,0.502,0.025,2.962,155.0,151.0,152.0,11.8,1504.7,271.5,-0.8,0.9,2485.408,13.28,769.0,0.503,87.2
2023-12-18T08:21:14,2420,42.8014,5.9826,0.766,0.038,3.593,155.0,152.0,152.0,11.8,1504.7,271.4,-0.8,0.9,2485.434,13.28,768.0,0.767,87.2
2023-12-18T08:24:13,2420,42.8014,5.9826,-0.117,0.275,3.198,155.0,151.0,152.0,11.8,1504.7,271.4,-0.8,0.9,2485.536,13.28,781.0,0.299,337.0
2023-12-18T08:27:13,2420,42.8014,5.9826,0.229,0.058,4.113,155.0,151.0,152.0,11.8,1504.7,271.5,-0.9,0.9,2485.309,13.28,768.0,0.236,75.8
2023-12-18T08:30:13,2420,42.8014,5.9826,0.359,0.055,3.995,155.0,152.0,152.0,11.8,1504.7,271.5,-0.8,0.9,2485.597,13.28,778.0,0.363,81.3
2023-12-18T08:33:13,2420,42.8014,5.9826,0.429,0.286,3.523,155.0,151.0,152.0,11.8,1504.7,271.4,-0.8,0.9,2485.755,13.28,769.0,0.516,56.3
2023-12-18T08:36:13,2420,42.8014,5.9826,0.46,0.04,3.929,155.0,151.0,152.0,11.8,1504.7,271.3,-0.9,0.8,2485.281,13.28,777.0,0.462,85.0
2023-12-18T08:39:13,2420,42.8014,5.9826,0.234,0.296,3.7,155.0,152.0,152.0,11.8,1504.7,271.4,-0.8,0.9,2485.49,13.28,775.0,0.377,38.3
2023-12-18T08:42:14,2420,42.8014,5.9826,0.371,0.045,3.946,155.0,152.0,152.0,11.8,1504.7,271.3,-0.9,0.9,2485.219,13.28,787.0,0.374,83.1
2023-12-18T08:45:14,2420,42.8014,5.9826,0.521,0.059,3.814,155.0,152.0,152.0,11.8,1504.7,271.4,-0.8,0.9,2485.436,13.28,783.0,0.524,83.5
2023-12-18T08:48:14,2420,42.8014,5.9826,0.217,0.069,4.095,155.0,151.0,152.0,11.8,1504.7,271.3,-0.9,0.9,2485.412,13.28,778.0,0.227,72.4
2023-12-18T08:51:14,2420,42.8014,5.9826,0.578,0.044,3.749,155.0,152.0,152.0,11.8,1504.7,271.4,-0.8,0.9,2485.43,13.28,769.0,0.58,85.6
2023-12-18T08:54:14,2420,42.8014,5.9826,0.307,0.054,4.045,155.0,151.0,152.0,11.8,1504.7,271.3,-0.8,0.9,2485.599,13.28,2671.0,0.312,80.0
2023-12-18T08:57:13,2420,42.8014,5.9826,0.349,0.073,4.019,155.0,151.0,152.0,11.8,1504.7,271.3,-0.9,0.9,2485.277,13.28,763.0,0.356,78.2
2023-12-18T09:03:14,2420,42.8014,5.9826,0.216,0.292,3.681,155.0,151.0,152.0,11.8,1504.7,271.3,-0.9,0.9,2485.627,13.28,774.0,0.363,36.5
2023-12-18T09:06:13,2420,42.8014,5.9826,0.265,0.057,4.107,155.0,152.0,152.0,11.8,1504.7,271.4,-0.8,0.9,2485.725,13.28,767.0,0.271,77.9